Regional Weather Roundup
Issued by NWS

Home | Current Version | Previous Version | Text Only | Print | Product List | Glossary On
Versions: 1 2 3 4 5 6 7 8 9 10 11 12 13 14 15 16 17 18 19 20 21 22 23 24 25 26 27 28 29 30 31 32 33 34 35 36 37 38 39 40 41 42 43 44 45 46 47 48 49 50
000
ASUS44 KBMX 192310
RWRAL

ALABAMA REGIONAL WEATHER ROUNDUP
NATIONAL WEATHER SERVICE BIRMINGHAM AL
500 PM CST FRI JAN 19 2018

NOTE: "FAIR" INDICATES FEW OR NO CLOUDS BELOW 12,000 FEET
WITH NO SIGNIFICANT WEATHER AND/OR OBSTRUCTIONS TO VISIBILITY.

THE REMARK "TC" DENOTES TEMPERATURE IN DEGREES CELSIUS.

ALZ001>011-014-016>018-020-200000-
NORTH ALABAMA

CITY           SKY/WX    TMP DP  RH WIND       PRES   REMARKS
MUSCLE SHOALS  CLOUDY    47  26  44 SW6       30.23F
HUNTSVILLE     FAIR      47  21  35 S3        30.22F
DECATUR        MOCLDY    45  20  36 S3        30.23F
HALEYVILLE     CLOUDY    46  23  40 SW6       30.24F
GADSDEN        FAIR      47   6  18 CALM      30.25S
$$

ALZ012-013-022-023-030>036-040>044-200000-
WEST CENTRAL ALABAMA

CITY           SKY/WX    TMP DP  RH WIND       PRES   REMARKS
TUSCALOOSA     NOT AVBL
DEMOPOLIS        N/A     49  23  35 CALM      30.27F
$$

ALZ015-024>026-033>036-041>044-200000-
CENTRAL ALABAMA

CITY           SKY/WX    TMP DP  RH WIND       PRES   REMARKS
BIRMINGHAM     FAIR      49  13  23 CALM      30.27S
MONTGOMERY     FAIR      49  12  22 CALM      30.27F
SHELBY CO ARPT FAIR      47  14  26 CALM      30.25F
MAXWELL AFB    FAIR      60  25  26 CALM      30.25F
GREENVILLE     FAIR      51   6  16 W5        30.25S
SELMA          FAIR      50  10  20 CALM      30.27F
PRATTVILLE     FAIR      49  15  25 CALM      30.26S
BESSEMER       MOCLDY    49  17  28 CALM      30.25F
TALLADEGA      FAIR      49  12  22 CALM      30.26S
PELL CITY      CLEAR     45  18  33 CALM      30.26S
MARION         CLOUDY    48  27  44 S3        30.26F
SYLACAUGA      FAIR      50  18  28 CALM      30.25F
$$

ALZ019-021-028-029-037-038-045>048-200000-
EAST CENTRAL ALABAMA

CITY           SKY/WX    TMP DP  RH WIND       PRES   REMARKS
ANNISTON       FAIR      45  12  26 W3        30.25F
ALEXANDER CITY FAIR      48  21  34 W3        30.25F
AUBURN         FAIR      49  16  26 W3        30.26S
$$

ALZ051>064-200000-
SOUTHWEST ALABAMA

CITY           SKY/WX    TMP DP  RH WIND       PRES   REMARKS
MOBILE         FAIR      52  23  32 SE6       30.27S
BROOKLEY FIELD FAIR      48  30  49 SE3       30.29F
EVERGREEN      FAIR      54  11  18 CALM      30.27F
$$

ALZ049-050-065>069-200000-
SOUTHEAST ALABAMA

CITY           SKY/WX    TMP DP  RH WIND       PRES   REMARKS
DOTHAN         FAIR      54   7  15 W3        30.29R
OZARK          FAIR      53  10  17 CALM      30.25S
TROY           FAIR      51  11  20 NW3       30.27S
EUFAULA        FAIR      48  24  39 CALM      30.25R
$$



USA.gov is the U.S. government's official web portal to all federal, state and local government web resources and services.